www.pogodaiklimat.ru

Погода и климат >> Архив погоды >> Албания >> Кукес


ПОГОДА в Кукесе

  • Прогноз погоды в Кукесе
  • Монитор погоды в Кукесе

АРХИВ ПОГОДЫ в Кукесе

Время (UTC), дата Ветер
(напр.,м/с)
 
Видим.   Явления Облачность Т
(С)
Тd
(С)
f
(%)
Тe
(С)
Тes
(С)
Комфортность P
(гПа)
Po
(гПа)
Тmin
(С)
Tmax
(С)
R
(мм)
R24
(мм)
S
(см)
03 13.08 штиль 0 10 км ясно +24.0 +17.9 69 +28 +28 душно 1013.0 972.8
06 13.08 штиль 0 15 км ясно +22.0 +18.2 79 +27 +32 душно 1012.7 972.2 +21.0
09 13.08 штиль 0 15 км ясно +28.2 +18.1 54 +33 +52 опасность
солнечного
удара
1011.4 971.8
12 13.08 В 8 15 км ясно +33.8 +16.7 36 +37 +40 очень
душно
1009.1 970.3
15 13.08 штиль 0 15 км ясно +36.2 +14.2 27 +37 +43 очень
жарко
1006.5 968.1
18 13.08 штиль 0 15 км ясно +34.8 +11.3 24 +34 +34 очень
жарко
1005.8 967.3 +37.0
21 13.08 штиль 0 10 км ясно +29.6 +14.2 39 +32 +32 душно 1007.1 967.9
00 14.08 штиль 0 10 км ясно +26.0 +15.6 53 +29 +29 душно 1008.8 969.1
03 14.08 штиль 0 10 км ясно +23.6 +17.5 69 +28 +28 душно 1009.2 969.1
06 14.08 штиль 0 15 км ясно +23.2 +18.6 75 +29 +34 душно 1009.4 969.3 +22.0
09 14.08 штиль 0 15 км ясно +28.6 +17.8 52 +33 +52 опасность
солнечного
удара
1008.4 969.0
12 14.08 СВ 2 15 км 3/0
[Ac trans]
+33.4 +17.2 38 +37 +49 очень
душно
1006.4 967.7
15 14.08 штиль 0 15 км 4/0
[Ac trans]
+34.6 +15.0 31 +36 +41 душно 1004.2 965.7
18 14.08 СВ 12 7000 м слаб. дождь 10/10 1200 м
[Sc]
+26.2 +21.2 74 +33 +33 очень
душно
1004.0 964.5 +35.8 1
00 15.08 штиль 0 10 км 8/8 1200 м
[Sc]
+24.4 +20.5 79 +30 +30 очень
душно
1005.7 965.9
03 15.08 СВ 8 10 км 4/4 1200 м
[Cu med, cong]
+20.6 +17.4 82 +24 +24 комфорт 1009.4 968.9
06 15.08 СВ 8 10 км 4/4 1200 м
[Cu med, cong]
+19.6 +16.3 81 +21 +21 комфорт 1012.4 971.7 +18.4
09 15.08 СВ 8 10 км 6/6 900 м
[Sc]
+20.8 +13.2 62 +23 +24 комфорт 1013.9 973.2
12 15.08 СВ 18 10 км 8/8 1500 м
[Sc]
+23.2 +11.6 48 +26 +26 жарко 1013.0 972.7
15 15.08 СВ 16 15 км 4/4 1500 м
[Cu hum]
+25.8 +11.6 41 +27 +27 жарко 1011.2 971.3
18 15.08 СВ 12 15 км 4/4 1500 м
[Cu hum]
+23.0 +12.3 51 +26 +26 жарко 1011.6 971.3 +26.6
21 15.08 СВ 10 10 км 3/3 1500 м
[Cu hum]
+21.4 +13.1 59 +24 +24 комфорт 1012.6 972.1
00 16.08 СВ 8 10 км 3/0
[Ac trans]
+18.6 +13.0 70 +18 +18 1013.6 972.7
03 16.08 штиль 0 10 км 1/0
[Ac trans]
+16.8 +12.6 76 +17 +17 1014.5 973.3
06 16.08 штиль 0 15 км 6/0
[As trans]
+15.4 +11.8 79 +15 +18 1016.4 974.9 +15.2
09 16.08 штиль 0 15 км 5/0
[As trans]
+21.8 +10.9 50 +24 +37 комфорт 1015.7 975.1
12 16.08 СВ 8 15 км 1/0
[As trans]
+25.4 +10.4 39 +26 +29 жарко 1014.4 974.4
15 16.08 С 8 15 км ясно +26.0 +9.8 36 +27 +27 жарко 1013.0 973.1
18 16.08 С 8 15 км 3/0
[Ac trans]
+25.2 +12.1 44 +27 +27 жарко 1012.7 972.7 +27.6
21 16.08 С 4 10 км 3/0
[Ac trans]
+19.8 +11.6 59 +21 +21 комфорт 1014.3 973.5
00 17.08 штиль 0 10 км 1/0
[Ac trans]
+18.4 +12.8 70 +19 +19 1014.9 973.9
03 17.08 штиль 0 10 км ясно +17.0 +12.0 72 +17 +17 1016.3 975.1
06 17.08 штиль 0 15 км ясно +14.8 +10.2 74 +15 +19 1018.3 976.6 +14.4
09 17.08 штиль 0 15 км ясно +19.8 +10.8 56 +21 +40 комфорт 1018.4 977.4
12 17.08 СВ 8 15 км 1/0
[As trans]
+26.2 +9.2 34 +27 +29 жарко 1015.8 975.8
15 17.08 С 8 15 км 4/0
[As trans]
+28.2 +9.9 32 +28 +29 жарко 1013.4 973.7
18 17.08 С 6 15 км 3/0
[Ac trans]
+26.0 +9.4 35 +26 +26 жарко 1013.7 973.8 +29.0
21 17.08 штиль 0 10 км ясно +20.0 +11.5 58 +21 +21 комфорт 1015.7 974.9
00 18.08 штиль 0 10 км ясно +19.0 +12.7 67 +20 +20 1016.2 975.3
03 18.08 штиль 0 10 км ясно +17.4 +12.1 71 +17 +17 1017.3 976.0
06 18.08 штиль 0 15 км ясно +15.0 +10.8 76 +15 +19 1018.5 976.8 +14.6
09 18.08 штиль 0 15 км ясно +21.6 +13.2 59 +24 +43 комфорт 1017.9 977.2
12 18.08 СВ 4 15 км 1/0
[Ac trans]
+27.6 +12.0 38 +29 +38 жарко 1015.9 976.1
15 18.08 штиль 0 15 км ясно +30.4 +11.3 31 +31 +37 жарко 1013.7 974.3
18 18.08 штиль 0 15 км ясно +28.2 +10.4 33 +29 +29 жарко 1013.1 973.5 +31.0
21 18.08 штиль 0 10 км ясно +25.4 +12.2 44 +27 +27 жарко 1014.1 974.1
00 19.08 штиль 0 10 км ясно +20.6 +10.9 54 +22 +22 комфорт 1015.4 974.7
03 19.08 штиль 0 10 км ясно +18.0 +12.2 69 +18 +18 1016.4 975.3
06 19.08 штиль 0 15 км ясно +16.2 +11.3 73 +16 +21 1018.1 976.7 +15.0
09 19.08 штиль 0 15 км ясно +23.4 +10.4 44 +25 +44 комфорт 1018.0 977.5
12 19.08 С 2 15 км ясно +29.6 +11.2 32 +30 +45 жарко 1016.1 976.5
15 19.08 штиль 0 15 км ясно +32.2 +12.5 30 +33 +38 жарко 1014.2 975.0
18 19.08 штиль 0 15 км ясно +31.6 +12.5 31 +32 +32 жарко 1013.2 974.0 +33.2
21 19.08 штиль 0 10 км ясно +24.8 +15.1 55 +28 +28 жарко 1014.6 974.4

 

Местоположение метеостанции Кукес (Албания): широта 43.03 долгота 20.42 высота над уровнем моря 354 м.

В архиве по умолчанию представлена погода в Кукесе за последнюю неделю. Архивные данные за месяц целиком и за предыдущие месяцы, начиная с января 2011 года, Вы можете получить, выбрав интересующий диапазон дат из раскрывающегося списка и нажав кнопку "Ввод!".


*Определитесь, кто Вы:
робот инопланетянин человек

Внимание! Время в таблицах - всемирное. Для получения местного времени необходимо прибавить поправку, которая равна 1 ч.

Смотрите также архив погоды в соседних городах и на ближайших метеорологических станциях:

Погода на Копаонике (Сербия) (42 км)
Погода в Женике (Сербия) (44 км)
Погода в Кралево (Сербия) (78 км)
Погода в Плевле (Черногория) (94 км)
Погода в Пожега Ужичка (Сербия) (94 км)
Погода в Златиборе (Сербия) (96 км)
Погода в Крушеваце (Сербия) (96 км)
Погода в Подгорица-Граде (Черногория) (115 км)
Погода в Крагуеваце (Сербия) (119 км)
Погода в Подгорице (Черногория) (121 км)

Пояснения к столбцам:

Ветер - указаны скорость ветра в м/с - средняя за 10 мин, порывы в срок и между сроками (в фигурных скобках) и направление, откуда дует ветер: С - северный, СВ - северо-восточный, В - восточный, ЮВ - юго-восточный, Ю - южный, ЮЗ - юго-западный, З - западный, СЗ - северо-западный.
Видимость - горизонтальная дальность видимости в метрах или километрах. При видимости от 1 до 10 км при отсутствии осадков обычно наблюдается дымка, при ухудшении видимости до 1 км и менее - туман. В сухую погоду видимость может ухудшаться дымом, пылью или мглою.
Явления - указаны атмосферные явления, наблюдавшиеся в срок или в последний час перед сроком; фигурными скобками обозначены явления, наблюдавшиеся между сроками (за 1-3 часа до срока); квадратными скобками обозначены град или гололедные отложения с указанием их диаметра в мм.
Облачность - указаны через наклонную черту общая и нижняя облачность в баллах и высота нижней границы облаков в метрах; квадратными скобками обозначены формы облаков: Ci - перистые, Cs - перисто-слоистые, Cc - перисто-кучевые, Ac - высококучевые, As - высокослоистые, Sc - слоисто-кучевые, Ns - слоисто-дождевые, Cu - кучевые, Cb - кучево-дождевые. Подробнее классификацию облаков см. в Атласе облаков (PDF).
T - Температура воздуха - температура, измеренная на высоте 2 м над землей.
Td - Температура точки росы - температура, при понижении до которой содержащийся в воздухе водяной пар достигнет насыщения.
f - Относительная влажность воздуха - влажноcть воздуха, измеренная на высоте 2 м над землей.
Te - Эффективная температура - температура, которую ощущает одетый по сезону человек в тени. Характеристика душности погоды. При расчете учитывается влияние влажности воздуха и скорости ветра на теплоощущения человека.
Tes - Эффективная температура на солнце - температура, которую ощущает человек, с поправкой на солнечный нагрев. Характеристика знойности погоды. Зависит от высоты солнца над горизонтом, облачности и скорости ветра. Ночью, в пасмурную погоду, а также при ветре 12 м/с и более поправка равна нулю.
P - Атмосферное давление - приведенное к уровню моря атмосферное давление.
Po - Атмосферное давление - измеренное на уровне метеостанции атмосферное давление.
Tmin - Минимальная температура - минимум температуры воздуха на высоте 2 м над землей.
Tmax - Максимальная температура - максимум температуры воздуха на высоте 2 м над землей.
R - Количество осадков - Количество выпавших осадков за период времени, мм. При наведении курсора мыши на число - период времени, за который выпало указанное количество осадков.
R24 - Количество осадков - Количество выпавших осадков за 24 часа, мм.
S - Снежный покров - Высота снежного покрова, см. При наведении курсора мыши на число - состояние снежного покрова и степень покрытия местности в баллах.